sat.trackr.live / text

‹ back to catalog

STARLINK-5971

NORAD 56917 · 2023-083AT

PAYLOAD ACTIVE UNKNOWN

§ Identity

Operator
Country
US
Launch date
2023-06-12
Launch site
AFETR
Launch vehicle
Mass (kg)
RCS (m²)

Purposes: comms

External: N2YO · Heavens-Above · Gunter

§ Orbital elements

Epoch: 2026-05-24T23:32:50.807040Z

Period
94.27 min
Inclination
43.0066°
Eccentricity
0.0001350
Mean motion
15.27564244 rev/d
Perigee alt
482.2 km
Apogee alt
484.0 km
Semi-major
6,861.2 km
B*
1.0055e-5
RAAN
0.0250°
Arg perigee
268.5943°
Mean anomaly
91.4754°
Rev number
16,346

§ Raw data

STARLINK-59711 56917U 23083AT  26144.98114360  .00000014  00000+0  10055-4 0  99922 56917  43.0066   0.0250 0001350 268.5943  91.4754 15.27564244163462

JSON: /api/v1/satellites/56917 · /tle

For live sub-satellite position, see the globe view (requires WebGL).

§ Visibility from observer

Set your observer location to see the next 7 days of passes ≥ 10°. The values pass through the URL so the page stays shareable.

No JS? Fill the form by hand. The geolocation button needs JavaScript.